Regional Weather Roundup
Issued by NWS

Home | Current Version | Previous Version | Text Only | Print | Product List | Glossary On
Versions: 1 2 3 4 5 6 7 8 9 10 11 12 13 14 15 16 17 18 19 20 21 22 23 24 25 26 27 28 29 30 31 32 33 34 35 36 37 38 39 40 41 42 43 44 45 46 47 48 49 50
000
ASUS43 KMPX 231101
RWRMN
WEATHER ROUNDUP FOR MINNESOTA
NATIONAL WEATHER SERVICE TWIN CITIES/CHANHASSEN MN
600 AM CDT FRI JUN 23 2017


NOTE: "FAIR" INDICATES FEW OR NO CLOUDS BELOW 12,000 FEET WITH NO
SIGNIFICANT WEATHER AND/OR OBSTRUCTIONS TO VISIBILITY. N/A MEANS
CURRENT SKY AND/OR WEATHER CONDITIONS ARE NOT AVAILABLE.

MNZ060>063-068>070-231200-
   Twin Cities Metro

CITY           SKY/WX    TMP DP  RH WIND       PRES   REMARKS
TWIN CITIES    CLEAR     59  53  80 W7        29.72R
ST PAUL        CLEAR     57  56  96 W3        29.72R
CRYSTAL        CLEAR     60  49  66 NW9       29.70R
BLAINE         CLEAR     57  55  94 W8        29.71S
LAKEVILLE      CLEAR     55  55 100 W5        29.73R
EDEN PRAIRIE   CLEAR     58  53  84 NW7       29.73R
SOUTH ST PAUL  CLEAR     59  55  87 W7        29.72R
LAKE ELMO      FAIR      52  52 100 CALM      29.72R
$$
MNZ001>005-007-008-013>017-022>024-027-028-231200-
   Northwest Minnesota

CITY           SKY/WX    TMP DP  RH WIND       PRES   REMARKS
BEMIDJI        CLOUDY    55  48  79 W10       29.70R
HALLOCK        CLOUDY    57  54  88 NW16G24   29.72R
ROSEAU           N/A     55  50  82 W9        29.67R
WARROAD        CLOUDY    52  48  87 W8        29.66R
THIEF RVR FALL MOCLDY    55  52  88 NW14      29.73R
CROOKSTON      MOCLDY    55  52  88 NW10      29.75R
FOSSTON        PTCLDY    54  48  82 W10       29.73R
DETROIT LAKES  CLOUDY    57  50  77 NW13      29.76R
MOORHEAD       MOCLDY    61  52  72 NW14      29.77R
PARK RAPIDS    CLEAR     54  47  77 W10       29.72S
MAHNOMEN       CLOUDY    54  50  87 W10       29.74R
$$
MNZ006-009>011-018-025>026-231200-
   North Central Minnesota

CITY           SKY/WX    TMP DP  RH WIND       PRES   REMARKS
BAUDETTE       PTCLDY    52  50  93 W10       29.63R
FLAG ISLAND    PTCLDY    55  52  88 NW17G25   29.62R
INTL FALLS     MOCLDY    53  47  79 W7        29.60R
WASKISH        CLEAR     55  52  88 W14G22    29.66R
BIG FORK       CLOUDY    54  46  76 SW8       29.66R
LONGVILLE      CLEAR     54  46  76 W5        29.70R
GRAND RAPIDS   CLEAR     54  47  77 W6        29.69R
CRANE LAKE     CLOUDY    54  46  76 W6        29.62S
ORR            CLOUDY    54  45  71 W9        29.61R
COOK           CLEAR     50  45  81 W7        29.64R
WALKER         PTSUNNY   54  47  80 W9        29.70R
$$
MNZ012-019>021-037-231200-
   Northeast Minnesota

CITY           SKY/WX    TMP DP  RH WIND       PRES   REMARKS
DULUTH         PTCLDY    51  46  83 W8        29.65R
ELY            CLEAR     52  45  76 W6        29.61S
HIBBING        CLEAR     50  45  83 W5        29.65R
EVELETH        PTCLDY    53  43  70 W5        29.65S
DULUTH HARBOR  CLEAR     61  52  72 W13       29.65S
TWO HARBORS    CLEAR     57  48  72 W6        29.61S
SILVER BAY     CLEAR     54  48  82 CALM      29.60S
GRAND MARAIS     N/A     47  44  90 W3        29.56F
G MARAIS ARPRT CLEAR     52  41  66 W7        29.60S
$$
MNZ029>031-032-039>041-046>048-054>057-064-231200-
   West Central Minnesota

CITY           SKY/WX    TMP DP  RH WIND       PRES   REMARKS
FERGUS FALLS   CLOUDY    54  48  82 W9        29.75F
WHEATON        PTCLDY    57  48  72 W10G16    29.82R
MORRIS         MOCLDY    57  48  72 W16       29.78S
ALEXANDRIA     PTCLDY    55  47  74 W12       29.78R
ELBOW LAKE     CLOUDY    56  48  75 NW12G18   29.79R
WADENA         CLEAR     54  46  76 W6        29.73F
GLENWOOD       CLEAR     54  46  76 W12       29.78S
APPLETON       CLEAR     57  48  72 W10       29.81R
BENSON         CLEAR     55  48  76 NW10      29.80S
ORTONVILLE     CLEAR     57  48  72 W10       29.82R
MADISON        PTCLDY    57  50  77 W10       29.83R
WILLMAR        FAIR      57  48  72 W7        29.80R
$$
MNZ033>034-036-042>043-049>051-058-059-231200-
   Central Minnesota

CITY           SKY/WX    TMP DP  RH WIND       PRES   REMARKS
ST CLOUD       CLEAR     55  48  77 NW9       29.73R
SAUK CENTRE    FAIR      53  47  82 W6        29.77S
PAYNESVILLE    CLEAR     53  51  93 W7        29.77S
AITKIN         CLEAR     52  45  76 W5        29.69S
PINE RIVER     CLEAR     52  46  82 CALM      29.75S
BRAINERD       CLEAR     56  46  69 W8        29.72S
STAPLES        CLEAR     52  46  82 W7        29.73S
LONG PRAIRIE   FAIR      54  45  71 W7        29.76R
LITTLE FALLS   CLEAR     55  43  62 W7        29.74S
LITCHFIELD     CLEAR     61  48  63 NW12G17   29.77R
BUFFALO        CLEAR     60  47  61 W8        29.74R
MAPLE LAKE     CLEAR     59  50  70 NW12      29.75R
HUTCHINSON     CLEAR     58  51  77 W9        29.78R
$$
MNZ037-044-045-052-053-231200-
   East Central Minnesota

CITY           SKY/WX    TMP DP  RH WIND       PRES   REMARKS
PRINCETON      CLEAR     55  46  71 W7        29.73R
MORA           CLEAR     55  45  67 NW8       29.72R
CAMBRIDGE      CLEAR     59  46  63 W8        29.70R
RUSH CITY      PTCLDY    55  48  76 W3        29.71R
MOOSE LAKE     CLEAR     52  45  76 W6        29.67S
HINCKLEY       FAIR      52  50  93 CALM      29.69S
CLOQUET        CLEAR     54  45  71 W12       29.67R
MCGREGOR       CLEAR     54  45  71 W5        29.70S
$$
MNZ071>073-080-081-089-090-097-098-231200-
   Southwest Minnesota

CITY           SKY/WX    TMP DP  RH WIND       PRES   REMARKS
MONTEVIDEO     CLEAR     55  48  76 NW8       29.81R
GRANITE FALLS  CLEAR     56  50  81 SW8       29.84R
CANBY          CLEAR     56  49  76 NW7       29.86R
MARSHALL       CLEAR     56  48  74 NW13      29.84R
REDWOOD FALLS  CLEAR     57  48  72 NW14      29.79R
OLIVIA         CLEAR     55  48  76 W9G16     29.80R
PIPESTONE      CLEAR     55  46  71 NW9       29.88R
WINDOM         CLEAR     57  46  67 NW14G22   29.83R
WORTHINGTON    CLEAR     56  48  74 NW13      29.86R
JACKSON        CLEAR     59  50  72 NW15G22   29.83R
TRACY          CLEAR     58  49  72 NW8       29.85R
SLAYTON        CLEAR     55  44  68 NW9       29.86R
$$
MNZ065>067-074>077-082>085-091>093-231200-
   South Central Minnesota

CITY           SKY/WX    TMP DP  RH WIND       PRES   REMARKS
MANKATO        CLEAR     59  52  77 W12       29.78R
NEW ULM        CLEAR     57  48  72 NW13      29.78R
ST JAMES       CLEAR     57  52  82 W12       29.82R
FAIRMONT       CLEAR     60  51  72 NW18G24   29.81R
GLENCOE        CLEAR     59  55  85 W12       29.76R
FARIBAULT      PTCLDY    61  55  82 W7        29.75R
OWATONNA       CLEAR     55  54  94 S5        29.76R
WASECA         CLEAR     52  50  93 W6        29.78R
ALBERT LEA     CLEAR     57  55  94 SW3       29.78R
$$
MNZ078>079-086>088-094>096-231200-
   Southeast Minnesota

CITY           SKY/WX    TMP DP  RH WIND       PRES   REMARKS
ROCHESTER      CLEAR     57  54  89 SW8       29.76R
RED WING       CLEAR     55  54  94 CALM      29.70S FOG
STANTON        CLEAR     56  53  88 SW3       29.72R
DODGE CENTER   CLEAR     55  54  94 SW7       29.76R
WINONA         CLEAR     59  59 100 CALM      29.74R
AUSTIN         CLEAR     55  54  94 SW3       29.77R
PRESTON        CLEAR     57  54  90 W3        29.77S
$$
ABBREVIATIONS USED IN REMARKS
   TC - TEMPERATURES IN CELSIUS
  WCI - WIND CHILL INDEX
   HX - HEAT INDEX
  VSB - VISIBILITY
$$




USA.gov is the U.S. government's official web portal to all federal, state and local government web resources and services.